Hourly Data Report for October 11, 2003

TORONTO CITY
ONTARIO

43°40'00.000" N
79°24'00.000" W
112.50 m
6158355
71508
XTO

Download Data

Hourly Data (October 2003)
Hourly Data Report for October 11, 2003
TIME
LST
Temp Definition
°C
Dew Point Definition
°C
Rel Hum Definition
%
Precip. Amount Definition
mm

Wind Dir Definition
10's deg

Wind Spd Definition
km/h
Visibility Definition
km
Stn Press Definition
kPa
Hmdx Definition


Wind Chill Definition


Weather Definition


00:00 16.1 14.0 87   LegendMM LegendMM LegendMM 100.69     LegendNANA
01:00 16.2 14.0 87   LegendMM LegendMM LegendMM 100.70     LegendNANA
02:00 16.1 14.5 90   LegendMM LegendMM LegendMM 100.69     LegendNANA
03:00 15.4 14.0 91   LegendMM LegendMM LegendMM 100.69     LegendNANA
04:00 14.9 14.0 94   LegendMM LegendMM LegendMM 100.71     LegendNANA
05:00 14.9 13.4 91   LegendMM LegendMM LegendMM 100.73     LegendNANA
06:00 14.2 13.3 94   LegendMM LegendMM LegendMM 100.78     LegendNANA
07:00 14.0 13.5 97   LegendMM LegendMM LegendMM 100.80     LegendNANA
08:00 14.4 13.6 95   LegendMM LegendMM LegendMM 100.86     LegendNANA
09:00 14.8 13.8 94   LegendMM LegendMM LegendMM 100.84     LegendNANA
10:00 18.2 14.6 80   LegendMM LegendMM LegendMM 100.82     LegendNANA
11:00 19.5 13.4 68   LegendMM LegendMM LegendMM 100.81     LegendNANA
12:00 19.3 13.6 70   LegendMM LegendMM LegendMM 100.74     LegendNANA
13:00 18.4 12.4 68   LegendMM LegendMM LegendMM 100.63     LegendNANA
14:00 18.9 11.9 64   LegendMM LegendMM LegendMM 100.57     LegendNANA
15:00 18.4 12.2 67   LegendMM LegendMM LegendMM 100.52     LegendNANA
16:00 17.9 11.5 66   LegendMM LegendMM LegendMM 100.48     LegendNANA
17:00 17.5 11.3 67   LegendMM LegendMM LegendMM 100.45     LegendNANA
18:00 16.4 11.0 70   LegendMM LegendMM LegendMM 100.42     LegendNANA
19:00 16.2 12.1 77   LegendMM LegendMM LegendMM 100.37     LegendNANA
20:00 16.7 11.7 72   LegendMM LegendMM LegendMM 100.30     LegendNANA
21:00 16.9 12.0 73   LegendMM LegendMM LegendMM 100.23     LegendNANA
22:00 16.2 12.4 78   LegendMM LegendMM LegendMM 100.17     LegendNANA
23:00 15.3 12.6 84   LegendMM LegendMM LegendMM 100.13     LegendNANA

Notes on Data Quality.

Legend

  • E = Estimated
  • M = Missing
  • NA = Not Available*
  • [empty] = Indicates an unobserved value
Date modified: